Regional Weather Roundup
Issued by NWS

Home | Current Version | Previous Version | Graphics & Text | Print | Product List | Glossary On
Versions: 1 2 3 4 5 6 7 8 9 10 11 12 13 14 15 16 17 18 19 20 21 22 23 24 25 26 27 28 29 30 31 32 33 34 35 36 37 38 39 40 41 42 43 44 45 46 47 48 49 50
000
ASUS43 KDMX 040704
RWRIA

WEATHER ROUNDUP FOR IOWA
NATIONAL WEATHER SERVICE DES MOINES IA
  ISSUED BY NWS QUAD CITIES IA IL
100 AM CST WED MAR 04 2015

NOTE: "FAIR" INDICATES FEW OR NO CLOUDS BELOW 12,000 FEET WITH NO
SIGNIFICANT WEATHER AND/OR OBSTRUCTIONS TO VISIBILITY.

* - THESE STATIONS ARE NOT NWS STATIONS...THUS NOT UNDER NWS
QUALITY CONTROL.  THEY ALSO DO NOT REPORT WEATHER SUCH
AS PRECIPITATION OR FOG.

IAZ001>003-012>014-020>022-031>034-043>046-040800-
   NORTHWEST IOWA

CITY           SKY/WX    TMP DP  RH WIND       PRES   REMARKS
CARROLL *      CLOUDY    12   3  67 N20       30.13S WCI  -6
CHEROKEE *     CLOUDY    12   5  73 NW3       30.15R
DENNISON *     CLOUDY    14   5  67 N10       30.13F WCI   1
LE MARS *      CLOUDY    12   7  79 CALM      30.17S
ORANGE CITY *  MOCLDY    12   1  62 N5        30.14R WCI   4
SHELDON *      MOCLDY     9   1  72 NW8       30.12R WCI  -4
SIOUX CITY     CLOUDY    16   6  65 NW6       30.19R WCI   7
SPENCER        PTCLDY    10  -1  61 NW13      30.13R WCI  -5
STORM LAKE *   CLOUDY    10   3  72 NW9       30.12S WCI  -2
$$

IAZ055>058-069>071-079>083-090>094-040800-
   SOUTHWEST IOWA

CITY           SKY/WX    TMP DP  RH WIND       PRES   REMARKS
ATLANTIC *     CLOUDY    16   5  62 N15G21    30.13R WCI   1
AUDUBON *      PTCLDY    14   5  67 N15       30.11F WCI  -1
CLARINDA *     PTCLDY    16   7  67 N17G23    30.16R WCI   0
COUNCIL BLFS * CLOUDY    18   5  57 N13       30.13S WCI   4
CRESTON *      CLEAR     14   5  67 N17       30.11R WCI  -3
HARLAN *       CLOUDY    14   7  73 N14G23    30.16F WCI  -1
LAMONI         PTCLDY    16   8  71 N15       30.09R WCI   1
RED OAK *      CLOUDY    16   7  67 N16       30.15R WCI   0
SHENANDOAH *   MOCLDY    18   7  62 N12G20    30.17R WCI   5
$$

IAZ047>049-059>061-072>074-084-040800-
   CENTRAL IOWA

CITY           SKY/WX    TMP DP  RH WIND       PRES   REMARKS
AMES           PTCLDY    13   4  67 N18       30.11R WCI  -4
ANKENY *       CLOUDY    14   5  67 NW16      30.12R WCI  -2
BOONE *        MOCLDY    12   1  62 N21       30.09R WCI  -6
CHARITON *     CLEAR     16   7  67 NW14G24   30.09R WCI   1
DES MOINES     MOCLDY    15   5  64 NW17G24   30.12R WCI  -1
GRINNELL *     SUNNY     11   5  76 NW17G24   30.08R WCI  -6
KNOXVILLE *    CLOUDY    16   7  67 N21       30.08R WCI  -2
MARSHALLTOWN   CLEAR     10   2  69 NW17      30.07R WCI  -8
NEWTON *       MOCLDY    12   3  67 NW20      30.10R WCI  -6
PELLA *        CLEAR     15   9  78 N20G30    30.11R WCI  -3
PERRY *          N/A     14   7  72 NW16      30.13R WCI  -2
$$

IAZ004>006-015-016-023>025-035-036-040800-
   NORTH CENTRAL IOWA

CITY           SKY/WX    TMP DP  RH WIND       PRES   REMARKS
ALGONA *       MOCLDY    10 N/A N/A NW16      30.12R WCI  -7
CLARION *      PTCLDY    10   3  72 NW15      30.11R WCI  -6
ESTHERVILLE    PTCLDY     7  -2  66 NW14      30.11R WCI -10
FORT DODGE *   MOCLDY    10   1  67 NW7       30.13R WCI   0
MASON CITY     CLEAR      7  -1  70 NW14      30.08R WCI -10
WEBSTER CITY * PTCLDY    10   7  85 NW17G24   30.10R WCI  -7
IOWA FALLS *   FAIR       9   3  75 NW20      30.08R WCI -10
$$

IAZ007>011-017>019-026>030-037>042-050>054-066-040800-
   NORTHEAST IOWA

CITY           SKY/WX    TMP DP  RH WIND       PRES   REMARKS
CEDAR RAPIDS   CLEAR     10   4  76 NW17      30.02R WCI  -8
CLINTON *      PTCLDY    14   7  73 NW14      30.00R WCI  -1
DECORAH *      PTCLDY     9   0  66 NW14G22   29.99R WCI  -8
DUBUQUE          N/A    N/A N/A N/A MISG      29.95R
MONTICELLO *   CLEAR     10   5  79 NW15      30.00R WCI  -6
OELWEIN *      CLEAR      9   0  66 NW20      30.02R WCI -11
WATERLOO       PTCLDY     9   3  77 NW17      30.04R WCI  -9
$$

IAZ064-065-067-068-078-040800-
   EAST CENTRAL IOWA

CITY           SKY/WX    TMP DP  RH WIND       PRES   REMARKS
DAVENPORT      CLEAR     15   7  70 NW15      29.99R WCI   0
IOWA CITY      CLEAR     14   6  70 NW13      30.05R WCI   0
MT. PLEASANT * CLEAR     16   8  70 NW14      30.03R WCI   1
MUSCATINE *    PTCLDY    18  10  73 NW17G24   30.04R WCI   2
QUAD CITIES    PTCLDY    18  10  71 NW17G25   29.99R WCI   3
$$

IAZ062-063-075>077-085>089-095>099-040800-
   SOUTHEAST IOWA

CITY           SKY/WX    TMP DP  RH WIND       PRES   REMARKS
BURLINGTON     PTCLDY    19  12  74 NW13      30.00R WCI   6
FAIRFIELD *    PTCLDY    16   7  67 NW17G25   30.06R WCI   0
FORT MADISON * PTCLDY    19  12  73 N14G21    30.01F WCI   6
KEOKUK *       PTCLDY    21  14  73 N15       30.00S WCI   8
OSKALOOSA *    FAIR      14   7  73 NW21G26   30.09R WCI  -4
CENTERVILLE *  PTSUNNY   19  16  86 N15G21    30.06R WCI   5
OTTUMWA        CLEAR     15   6  67 NW22G31   30.07R WCI  -3
WASHINGTON *   CLEAR     16  12  86 NW15G25   30.05R WCI   1
$$

ABBREVIATIONS USED IN REMARKS
   TC - TEMPERATURES IN CELSIUS
  WCI - WIND CHILL INDEX
   HX - HEAT INDEX
  VSB - VISIBILITY
$$



USA.gov is the U.S. government's official web portal to all federal, state and local government web resources and services.